SARC

Details ICAO SARC (CNQ)
Name CORRIENTES
Region Argentina
Timezone America/Argentina/Cordoba (UTC-3.0)
Plans Departing 19
Arriving 17
Stats Elevation 203 ft / 62 m (AMSL)
Location -27.445503° -58.761862°
Runways 1
Magnetic Variation 12.376° W
Sunrise 2018-05-21 10:33:05 UTC / 2018-05-21 07:33:05 Local
Sunset 2018-05-21 21:13:04 UTC / 2018-05-21 18:13:04 Local
Advertisement - Login to hide

Runways

ID Width Length Bearing (true) Bearing (mag) Surface Threshold Offset Overrun Length
02 148 ft / 45 m 6,880 ft / 2,097 m 7.82° 20.20° Concrete 0 ft / 0 m 0 ft / 0 m
20 148 ft / 45 m 6,880 ft / 2,097 m 187.82° 200.20° Concrete 0 ft / 0 m 0 ft / 0 m

Approach Navaids

Runway Type Ident Frequency Range Bearing (true) Bearing (mag) Slope Elevation
20 Localiser CR 109.70 MHz 18 nm / 33 km 187.73° 200.11° - 203 ft / 62 m (AMSL)
20 Glidescope CR 109.70 MHz 10 nm / 19 km 187.82° 200.20° 3.00° 203 ft / 62 m (AMSL)

Map

Weather


0- 5 10 15 20 25 30 35+ Temperature / ° C

Clouds and Precipitation
Forecast for 2018-05-21 06:00 UTC. Updated 2 hours ago

Ground ~20,000 ft ~40,000 ft Winds

METAR

SARC 210500Z 14002KT CAVOK 11/09 Q1017

TAF

Not found

Frequencies

Tower 118.30 MHz TWR
Tower 118.85 MHz TWR
Warning: Do not use this data for real-world aviation or navigation. No guarantee of current accuracy is given.